Location: B�retswil
(47.3376°N, 8.8534°E)
Time: 02:26:07
(UTC+00:00)

MOS 1 - Visible Passes

Search period start: 14 June 2021 00:00
Search period end: 24 June 2021 00:00
Orbit: 879 x 890 km, 99.1° (Epoch: 13 June)

Date Brightness Start Highest point End Pass type
(mag) Time Alt. Az. Time Alt. Az. Time Alt. Az.
14 Jun 6.8 21:21:58 10° WSW 21:24:13 12° W 21:26:28 10° WNW visible
15 Jun 6.8 21:19:53 10° WSW 21:22:20 13° W 21:24:49 10° WNW visible
16 Jun 6.8 21:17:49 10° WSW 21:20:28 13° W 21:23:08 10° WNW visible
17 Jun 6.8 21:15:46 10° WSW 21:18:35 14° W 21:21:27 10° WNW visible
18 Jun 6.7 21:13:44 10° WSW 21:16:43 14° W 21:19:44 10° NW visible
19 Jun 6.7 21:11:42 10° WSW 21:14:51 15° W 21:18:01 10° NW visible
20 Jun 6.7 21:09:42 10° WSW 21:12:59 16° W 21:16:17 10° NW visible
21 Jun 6.7 21:07:42 10° SW 21:11:07 16° W 21:14:33 10° NW visible
22 Jun 6.7 21:05:42 10° SW 21:09:15 17° W 21:12:48 10° NW visible
23 Jun 6.6 21:03:43 10° SW 21:07:23 17° W 21:11:04 10° NW visible
